STARLINK-31521, 59015

Orbit data source: Space-Track

STARLINK-31521, 59015 is a payload satellite owned by SpaceX/Seattle (US) in LEO that was launched on Fri, 23 Feb 2024 UTC via an FALCON 9 launch vehicle from the Air Force Western Test Range (AFWTR). Payload-class satellites include a variety of spacecraft equipped with specific instruments for various scientific and technological missions. These include communications satellites like Starlink; space stations such as the ISS; scientific satellites like the Hubble; Earth observation satellites from companies like Planet Labs, Umbra, and HawkEye 360; GPS; miniature CubeSats for education and research; and military/defense satellites.

Loading next visibility...
Identifier
59015, 2024-036T
Orbit
LEO
Country
Flag of USUS
Related business
Manufacturer
SpaceX/Seattle
Mission
Operational Commercial Communications
Bus & Motor
STARLINK V2M, Unknown motor
Mass
730 kg wet, ~700 kg dry
Launch date (UTC)
2024-02-23 (2 years ago)
Launch vehicle
FALCON 9
Launch site
Air Force Western Test Range (AFWTR)
Object type
Payload
Rocket body
Debris
Shape & HBR
Box + 2 Pan, 17.7 m
Radar Cross Section
33.884 m², Large (>1 m²)

Expand to show TLE details & history
Last TLE update: 3 days ago

TLE from 3 days ago
0 STARLINK-31521
1 59015U 24036T   26170.80467982 -.00000384  00000-0 -81706-6 0  9990
2 59015  53.1624 324.0847 0001574  83.9063 276.2117 15.30193889130958
Epoch: 2026-06-19T19:18Z
TLE epoch observation values (Epoch: 2026-06-19T19:18:44.336Z)
Latitude
-0.00003°
Longitude
126.37155°
Altitude
476.017 km
Speed
7.629 km/s
True Right ascension
21h 36m 20s
True Declination
0° 00' 00"
Sunlit
Object was in full shadow at epoch
Visualization orbit readout
Latitude
Unknown
Longitude
Unknown
Altitude
Unknown
Speed
Unknown
Apparent Right ascension
Unknown
Apparent Declination
Unknown
Sunlit
N/A
Visualization observer readout
Local Sidereal Time
21:26:37
Azimuth
Unknown
Elevation
Unknown
Doppler factor
Unknown
Orbital elements
Apogee altitude
476.568 km
Perigee altitude
474.411 km
Semi-major axis
6,853.626 km
Eccentricity
0.00016
Inclination
53.1624°
RAAN
324.0847°
Arg. of periapsis
83.9063°
True anomaly
276.19377°
Mean anomaly
276.2117°
Eccentric anomaly
276.20273°
Mean motion
3.82527 °/min
Orbital period
94.11 mins
BSTAR
-8.1706e-7
Loading maneuver chart data...
Computing Atmospheric mass density...
Loading historical data...
Loading historical data...
Loading historical data...
Loading historical data...
Loading historical data...
Loading historical data...
Loading historical data...

Documentation

Showing up to 5 results
|